COSMOS 2251 DEB, 34430

Orbit data source: Space-Track

COSMOS 2251 DEB, 34430 is space debris in LEO originally from a launch on Wed, 16 Jun 1993 UTC launched from the Plesetsk Missile And Space Complex (PKMTR). The debris from Iridium 33, an American commercial communications satellite, has been tracked extensively since its accidental collision with the defunct Russian satellite Cosmos 2251 in 2009. This event, occurring at high speed in low Earth orbit (LEO), generated thousands of pieces of space debris, significantly increasing the risk of further collisions. The Iridium 33 debris cloud has impacted space traffic management and orbital debris mitigation strategies, making it a subject of ongoing study in space situational awareness.

Loading next visibility...
Identifier
34430, 1993-036RX
Orbit
LEO
Country
Flag of CISCIS
Related business
Manufacturer
Unknown
Mission
Spacecraft
Bus & Motor
Unknown
Mass
Unknown
Launch date (UTC)
1993-06-16 (33 years ago)
Launch vehicle
Unknown
Launch site
Plesetsk Missile And Space Complex (PKMTR)
Object type
Payload
Rocket body
Debris
Shape & HBR
Unknown shape, 0.1 m
Radar Cross Section
Small (<0.1 m²)

Expand to show TLE details & history
Last TLE update: 8 hours ago

TLE from 8 hours ago
0 COSMOS 2251 DEB
1 34430U 93036RX  26120.16253044  .00001175  00000-0  37335-3 0  9999
2 34430  74.0524  47.8784 0059487  85.3893 275.4054 14.40020789899474
Epoch: 2026-04-30T03:54Z
TLE epoch observation values (Epoch: 2026-04-30T03:54:02.630Z)
Latitude
0.00007°
Longitude
131.25437°
Altitude
757.298 km
Speed
7.478 km/s
True Right ascension
03h 11m 30s
True Declination
0° 00' 00"
Sunlit
Object was in daylight at epoch
Visualization orbit readout
Latitude
Unknown
Longitude
Unknown
Altitude
Unknown
Speed
Unknown
Apparent Right ascension
Unknown
Apparent Declination
Unknown
Sunlit
N/A
Visualization observer readout
Local Sidereal Time
19:42:32
Azimuth
Unknown
Elevation
Unknown
Doppler factor
Unknown
Orbital elements
Apogee altitude
798.487 km
Perigee altitude
713.609 km
Semi-major axis
7,134.185 km
Eccentricity
0.00595
Inclination
74.0524°
RAAN
47.8784°
Arg. of periapsis
85.3893°
True anomaly
274.7263°
Mean anomaly
275.4054°
Eccentric anomaly
275.0659°
Mean motion
3.60186 °/min
Orbital period
99.95 mins
BSTAR
0.00037335
Loading maneuver chart data...
Computing Atmospheric mass density...

Documentation

Showing up to 5 results
|